Location: Les Jeannots
(43.2262°N, 5.5774°E)
Time: 01:26:00
(UTC+00:00)

Cosmos 405 - Pass Details

Date: 05 July 2020
Orbit: 450 x 465 km, 81.3° (Epoch: 04 August)

Event Time Altitude Azimuth Distance (km) Brightness Sun altitude
Rises 23:23:54 0° 358° (N) 2,505 8.1 -24.0°
Reaches altitude 10° 23:26:07 10° 7° (N) 1,622 6.8 -24.0°
Enters shadow 23:28:52 33° 53° (NE) 797 4.4 -24.0°
